[[{"header":{"parameterUnit":"m.s-1","parameterCategory":1,"la1":30.2991,"la2":30.254,"lo1":-89.0895,"lo2":-89.0444,"dy":0.0017,"dx":0.0017,"nx":28,"ny":28,"refTime":"2024-11-28T03:00:00:Z","depth":0,"parameterNumber":2,"parameterNumberName":"U-component_of_WINDS"},"data":[0,0,0,0,0,0,0,0,0,0,0,0,0,0,0,0,0,0,0,0,0,0,0,0,0,0,0,0,0,0,0,0,0,0,0,0,0,0,0,0,0,0,0,0,0,0,0,0,0,0,0,0,0,0,0,0,0,0,-0.5582,-0.5582,0,-0.5626,-0.5626,-0.5627,-0.5633,-0.5632,-0.5632,-0.5632,-0.5678,-0.568,-0.5681,0,0,0,0,0,0,0,0,0,0,0,0,0,-0.5503,-0.5504,-0.5582,-0.5582,-0.5583,-0.5626,-0.5626,-0.5627,-0.5633,-0.5632,-0.5632,-0.5631,-0.5678,-0.568,-0.5682,0,0,0,0,0,0,0,0,0,0,0,0,0,-0.5541,-0.5504,-0.5581,-0.5591,-0.5592,-0.5626,-0.5626,-0.5627,-0.5633,-0.5632,-0.5632,-0.5631,-0.5677,-0.5679,-0.5682,-0.571,0,0,-0.5689,-0.569,0,0,0,0,0,0,0,0,-0.5539,-0.5544,-0.5589,-0.559,-0.5592,-0.5623,-0.5616,-0.5655,-0.5633,-0.5617,-0.5632,-0.5631,-0.566,-0.5664,-0.5674,-0.5712,-0.5714,-0.569,-0.5691,-0.5692,-0.5693,0,0,0,0,0,0,0,-0.5536,-0.5542,-0.5599,-0.5589,-0.5591,-0.5593,-0.5598,-0.5623,-0.5642,-0.5619,-0.5619,-0.5624,-0.5661,-0.5672,-0.5675,-0.5714,-0.5689,-0.5692,-0.5693,-0.5694,-0.5776,-0.5777,0,0,0,0,0,0,-0.5532,-0.554,-0.5598,-0.56,-0.5563,-0.5595,-0.56,-0.5614,-0.5642,-0.5645,-0.5625,-0.5625,-0.5668,-0.5672,-0.5677,-0.5711,-0.5692,-0.5694,-0.5696,-0.5776,-0.5777,-0.5777,0,0,0,0,0,0,-0.553,-0.5537,-0.5596,-0.557,-0.5578,-0.5597,-0.5612,-0.5615,-0.5625,-0.5646,-0.565,-0.5632,-0.5667,-0.5673,-0.5701,-0.5713,-0.5695,-0.5698,-0.5775,-0.5776,-0.5777,-0.578,0,0,0,0,0,0,-0.5528,-0.5536,-0.5547,-0.557,-0.5579,-0.5619,-0.5613,-0.5616,-0.5629,-0.5629,-0.5654,-0.5658,-0.5667,-0.5697,-0.5704,-0.5716,-0.57,-0.5774,-0.5775,-0.5777,-0.5779,-0.5781,-0.5782,0,0,0,0,0,-0.5525,-0.5546,-0.5547,-0.5554,-0.5593,-0.562,-0.5625,-0.5636,-0.563,-0.5641,-0.5655,-0.5657,-0.571,-0.57,-0.5707,-0.572,-0.5773,-0.5775,-0.5777,-0.5778,-0.578,-0.5782,0,0,0,0,0,0,-0.5524,-0.555,-0.5551,-0.5581,-0.5598,-0.5621,-0.5635,-0.5638,-0.5658,-0.5657,-0.5669,-0.5675,-0.5702,-0.5714,-0.5702,-0.5748,-0.5741,-0.5744,-0.574,-0.5742,-0.5744,-0.5741,-0.5702,0,0,0,0,0,-0.5527,-0.5547,-0.5568,-0.5592,-0.5601,-0.5616,-0.5629,-0.5635,-0.5654,-0.5661,-0.5677,-0.5695,-0.5716,-0.573,-0.575,-0.578,-0.5785,-0.5792,-0.5794,-0.5795,-0.5798,-0.5815,-0.5818,-0.5783,-0.5783,-0.5783,0,0,-0.5535,-0.5551,-0.5563,-0.5593,-0.5607,-0.5627,-0.5623,-0.5645,-0.566,-0.5665,-0.5692,-0.5704,-0.5725,-0.5754,-0.5767,-0.5764,-0.5809,-0.5798,-0.5799,-0.5801,-0.5817,-0.582,-0.5823,-0.5784,-0.5784,-0.5783,0,0,-0.5558,-0.5572,-0.5594,-0.5608,-0.5629,-0.5639,-0.5644,-0.5666,-0.5674,-0.5701,-0.5706,-0.5724,-0.5759,-0.5774,-0.5787,-0.5814,-0.5817,-0.582,-0.5831,-0.5846,-0.5849,-0.5852,-0.5862,-0.5865,-0.5823,-0.5823,-0.5823,0,-0.5565,-0.5595,-0.5605,-0.5626,-0.5639,-0.5644,-0.5666,-0.5679,-0.5706,-0.5715,-0.5711,-0.5755,-0.577,-0.5802,-0.5808,-0.5818,-0.5824,-0.5818,-0.5848,-0.585,-0.5853,-0.5863,-0.5866,-0.5823,-0.5823,-0.5823,-0.5823,0,-0.5602,-0.5623,-0.5638,-0.5663,-0.5678,-0.5699,-0.5712,-0.5726,-0.573,-0.574,-0.5768,-0.5785,-0.5809,-0.5817,-0.5822,-0.5849,-0.5847,-0.5845,-0.5839,-0.5856,-0.5866,-0.587,-0.5823,-0.5823,-0.5823,-0.5823,0,0,-0.5629,-0.5658,-0.5663,-0.5674,-0.5697,-0.5714,-0.5735,-0.5758,-0.5769,-0.5787,-0.5805,-0.5835,-0.5833,-0.5847,-0.5853,-0.5867,-0.5887,-0.5863,-0.5864,-0.5868,-0.5919,-0.5921,-0.5925,-0.5889,-0.5889,-0.589,-0.5917,0,-0.5655,-0.5694,-0.5702,-0.5735,-0.5754,-0.5758,-0.5777,-0.5793,-0.5802,-0.582,-0.5831,-0.5852,-0.5848,-0.5856,-0.587,-0.5882,-0.5898,-0.588,-0.5906,-0.5907,-0.5902,-0.593,-0.5932,-0.5957,-0.5921,-0.5921,-0.5922,0,-0.5692,-0.571,-0.5745,-0.5765,-0.5773,-0.579,-0.5811,-0.5827,-0.5845,-0.5851,-0.5866,-0.5871,-0.5893,-0.5884,-0.5915,-0.5903,-0.5914,-0.5921,-0.5922,-0.5926,-0.5916,-0.5935,-0.5965,-0.5969,-0.5928,-0.5927,-0.5927,0,-0.5708,-0.5741,-0.5766,-0.5776,-0.5799,-0.5811,-0.5821,-0.5838,-0.5851,-0.5869,-0.5877,-0.5898,-0.5909,-0.5925,-0.5935,-0.5928,-0.5965,-0.5957,-0.5971,-0.5971,-0.598,-0.598,-0.6013,-0.5986,-0.5986,-0.5986,-0.5986,0,-0.5738,-0.5759,-0.5774,-0.5789,-0.5813,-0.5822,-0.5845,-0.5855,-0.587,-0.5888,-0.5892,-0.5908,-0.592,-0.5938,-0.5946,-0.597,-0.5975,-0.5981,-0.5983,-0.5981,-0.5981,-0.599,-0.5988,-0.5987,-0.5986,-0.5986,-0.5986,0,-0.5761,-0.5771,-0.5799,-0.5818,-0.5823,-0.584,-0.5857,-0.5872,-0.5881,-0.5903,-0.5908,-0.5923,-0.5944,-0.5955,-0.5982,-0.5987,-0.6015,-0.6015,-0.6008,-0.601,-0.6023,-0.6022,-0.6064,-0.607,-0.6038,-0.6038,-0.6038,0,-0.578,-0.5796,-0.5816,-0.5828,-0.5839,-0.5857,-0.587,-0.5879,-0.5892,-0.5913,-0.5926,-0.5947,-0.5964,-0.5998,-0.6011,-0.6031,-0.6033,-0.6046,-0.6036,-0.6033,-0.6034,-0.6033,-0.6035,-0.6048,-0.6049,-0.6049,-0.6049,0,-0.5812,-0.5816,-0.5834,-0.5853,-0.5868,-0.5884,-0.59,-0.5909,-0.592,-0.5935,-0.5956,-0.597,-0.5996,-0.6017,-0.6038,-0.6049,-0.6051,-0.6052,-0.6056,-0.6055,-0.6051,-0.6054,-0.6014,-0.6051,-0.6051,-0.6051,-0.6051,-0.6051,-0.5834,-0.5848,-0.5865,-0.5884,-0.5897,-0.5911,-0.5926,-0.5936,-0.5954,-0.5976,-0.598,-0.6003,-0.6019,-0.6047,-0.6058,-0.6076,-0.6074,-0.608,-0.6082,-0.6083,-0.6084,-0.6047,-0.608,-0.608,-0.608,-0.608,-0.608,0,-0.5867,-0.5877,-0.5895,-0.5916,-0.5931,-0.5931,-0.5948,-0.5961,-0.5981,-0.5996,-0.6012,-0.6036,-0.6056,-0.607,-0.6091,-0.6102,-0.6104,-0.6107,-0.6107,-0.6109,-0.6085,-0.6079,-0.6106,-0.6106,-0.6106,-0.6106,-0.6105,-0.6105,-0.5886,-0.591,-0.5916,-0.5946,-0.5956,-0.5978,-0.5988,-0.6001,-0.6013,-0.6039,-0.6056,-0.6064,-0.6079,-0.61,-0.6118,-0.6121,-0.6129,-0.6133,-0.6136,-0.6114,-0.6111,-0.6109,-0.6103,-0.6134,-0.6134,-0.6159,-0.616,-0.616]},{"header":{"parameterUnit":"m.s-1","parameterCategory":1,"la1":30.2991,"la2":30.254,"lo1":-89.0895,"lo2":-89.0444,"dy":0.0017,"dx":0.0017,"nx":28,"ny":28,"refTime":"2024-11-28T03:00:00:Z","depth":0,"parameterNumber":3,"parameterNumberName":"V-component_of_WINDS"},"data":[0,0,0,0,0,0,0,0,0,0,0,0,0,0,0,0,0,0,0,0,0,0,0,0,0,0,0,0,0,0,0,0,0,0,0,0,0,0,0,0,0,0,0,0,0,0,0,0,0,0,0,0,0,0,0,0,0,0,-6.2939,-6.294,0,-6.3037,-6.3038,-6.3039,-6.2998,-6.2996,-6.2994,-6.2992,-6.3085,-6.309,-6.3094,0,0,0,0,0,0,0,0,0,0,0,0,0,-6.2708,-6.2713,-6.2938,-6.294,-6.2941,-6.3037,-6.3038,-6.304,-6.2999,-6.2996,-6.2993,-6.299,-6.3084,-6.3089,-6.3095,0,0,0,0,0,0,0,0,0,0,0,0,0,-6.2807,-6.2714,-6.2938,-6.2932,-6.2933,-6.3037,-6.3038,-6.304,-6.2999,-6.2996,-6.2992,-6.2989,-6.3082,-6.3089,-6.3095,-6.3209,0,0,-6.3117,-6.312,0,0,0,0,0,0,0,0,-6.2802,-6.2816,-6.2932,-6.2933,-6.2934,-6.3002,-6.2991,-6.3096,-6.3,-6.2974,-6.2991,-6.2987,-6.306,-6.3068,-6.3094,-6.3213,-6.3217,-6.3117,-6.3122,-6.3125,-6.3127,0,0,0,0,0,0,0,-6.2795,-6.2811,-6.2977,-6.2934,-6.2935,-6.2923,-6.2933,-6.3011,-6.3035,-6.2976,-6.2973,-6.2986,-6.3059,-6.3088,-6.3096,-6.3218,-6.3117,-6.3123,-6.3128,-6.3131,-6.3436,-6.3439,0,0,0,0,0,0,-6.2789,-6.2806,-6.2974,-6.298,-6.2858,-6.293,-6.2941,-6.2983,-6.3034,-6.3039,-6.2989,-6.2984,-6.3077,-6.3088,-6.3099,-6.3236,-6.3125,-6.3131,-6.3135,-6.3432,-6.3437,-6.3441,0,0,0,0,0,0,-6.2784,-6.2804,-6.297,-6.2892,-6.2913,-6.2937,-6.2985,-6.2987,-6.3016,-6.3044,-6.3047,-6.3014,-6.3075,-6.3089,-6.3183,-6.3239,-6.3134,-6.3141,-6.3427,-6.3433,-6.3439,-6.3511,0,0,0,0,0,0,-6.2778,-6.2803,-6.2848,-6.2894,-6.2917,-6.3054,-6.2989,-6.2992,-6.3029,-6.3023,-6.3068,-6.3072,-6.3073,-6.3172,-6.319,-6.3247,-6.3146,-6.3422,-6.343,-6.3437,-6.3504,-6.3518,-6.3531,0,0,0,0,0,-6.277,-6.2862,-6.285,-6.2871,-6.2974,-6.3057,-6.307,-6.3072,-6.3033,-6.3078,-6.3096,-6.3071,-6.323,-6.3182,-6.3201,-6.3261,-6.3419,-6.3428,-6.3436,-6.3497,-6.3516,-6.3531,0,0,0,0,0,0,-6.2819,-6.2868,-6.2855,-6.2966,-6.3008,-6.305,-6.3106,-6.3091,-6.3143,-6.3135,-6.3133,-6.3143,-6.324,-6.3259,-6.3205,-6.3374,-6.3318,-6.3331,-6.3358,-6.3376,-6.3389,-6.3383,-6.3152,0,0,0,0,0,-6.2843,-6.2909,-6.2947,-6.3041,-6.3063,-6.3082,-6.3118,-6.3116,-6.3158,-6.3175,-6.32,-6.324,-6.3299,-6.3338,-6.3394,-6.3506,-6.3515,-6.3556,-6.357,-6.3582,-6.3593,-6.3654,-6.3673,-6.347,-6.347,-6.347,0,0,-6.2893,-6.2928,-6.2969,-6.3052,-6.3084,-6.3151,-6.3097,-6.3169,-6.3218,-6.3185,-6.3276,-6.3296,-6.334,-6.3444,-6.349,-6.3463,-6.3651,-6.3593,-6.3602,-6.3607,-6.3665,-6.3685,-6.3702,-6.3476,-6.3475,-6.3474,0,0,-6.3018,-6.3051,-6.3134,-6.3168,-6.3219,-6.3231,-6.3251,-6.3296,-6.3309,-6.34,-6.3378,-6.3434,-6.3536,-6.3569,-6.36,-6.3739,-6.3718,-6.3757,-6.3829,-6.3889,-6.3905,-6.392,-6.397,-6.3988,-6.3768,-6.3768,-6.3768,0,-6.3073,-6.3175,-6.3177,-6.3253,-6.329,-6.3266,-6.3349,-6.3381,-6.3447,-6.3472,-6.3441,-6.357,-6.3598,-6.3709,-6.3744,-6.3768,-6.379,-6.3752,-6.3903,-6.3917,-6.3931,-6.3979,-6.3998,-6.3773,-6.3772,-6.3772,-6.3771,0,-6.324,-6.3311,-6.3371,-6.3439,-6.3483,-6.3561,-6.3574,-6.3617,-6.3612,-6.3626,-6.3719,-6.3752,-6.3815,-6.3841,-6.3835,-6.3952,-6.3934,-6.3903,-6.3847,-6.3955,-6.4,-6.4018,-6.3779,-6.3777,-6.3776,-6.3775,0,0,-6.3399,-6.3469,-6.3491,-6.3522,-6.3577,-6.3631,-6.3708,-6.3772,-6.381,-6.3855,-6.392,-6.4007,-6.398,-6.4014,-6.4011,-6.4063,-6.4173,-6.4026,-6.4027,-6.4053,-6.4305,-6.4329,-6.435,-6.4159,-6.4163,-6.4165,-6.4302,0,-6.3529,-6.3668,-6.3673,-6.3799,-6.3865,-6.3844,-6.3911,-6.3951,-6.3966,-6.4022,-6.4038,-6.4101,-6.4059,-6.408,-6.4131,-6.4149,-6.4224,-6.4139,-6.4218,-6.4221,-6.4209,-6.4374,-6.4399,-6.4526,-6.4319,-6.4322,-6.4324,0,-6.37,-6.3756,-6.3889,-6.3936,-6.3964,-6.4025,-6.4085,-6.4139,-6.4183,-6.4191,-6.423,-6.422,-6.4297,-6.4238,-6.4344,-6.4287,-6.4319,-6.4332,-6.4337,-6.4345,-6.428,-6.4387,-6.4567,-6.4586,-6.4352,-6.435,-6.4348,0,-6.3805,-6.3911,-6.4006,-6.4033,-6.409,-6.4133,-6.4158,-6.42,-6.4238,-6.429,-6.4315,-6.4373,-6.4405,-6.445,-6.4455,-6.4412,-6.4562,-6.4503,-6.4569,-6.457,-6.4603,-6.4601,-6.4791,-6.4622,-6.4621,-6.4621,-6.4621,0,-6.3951,-6.4033,-6.4054,-6.4112,-6.4204,-6.4208,-6.4297,-6.4319,-6.4356,-6.4416,-6.44,-6.4456,-6.4459,-6.4517,-6.452,-6.4608,-6.4622,-6.4629,-6.463,-6.4632,-6.4631,-6.4654,-6.4645,-6.4626,-6.4625,-6.4624,-6.4623,0,-6.4083,-6.41,-6.4202,-6.4248,-6.4262,-6.4328,-6.4366,-6.4421,-6.4435,-6.4512,-6.453,-6.4551,-6.4618,-6.4628,-6.4705,-6.4708,-6.4813,-6.4803,-6.48,-6.4799,-6.4865,-6.4859,-6.5077,-6.5106,-6.4917,-6.4919,-6.492,0,-6.4176,-6.4239,-6.4294,-6.4335,-6.4364,-6.4429,-6.4469,-6.4475,-6.4517,-6.4574,-6.4621,-6.4687,-6.474,-6.4848,-6.4869,-6.4928,-6.492,-6.4993,-6.4929,-6.493,-6.4923,-6.492,-6.4926,-6.5005,-6.5007,-6.5009,-6.501,0,-6.4339,-6.4345,-6.4405,-6.447,-6.4519,-6.4569,-6.4616,-6.465,-6.4661,-6.4709,-6.4779,-6.4821,-6.4901,-6.4967,-6.5026,-6.5049,-6.5032,-6.503,-6.5049,-6.5052,-6.5048,-6.5053,-6.4834,-6.5025,-6.5024,-6.5023,-6.5022,-6.5021,-6.4455,-6.4511,-6.456,-6.4628,-6.4664,-6.4709,-6.4764,-6.4786,-6.4845,-6.4914,-6.4912,-6.4989,-6.5032,-6.511,-6.5137,-6.5196,-6.5172,-6.5199,-6.5206,-6.5213,-6.522,-6.5038,-6.5206,-6.5206,-6.5205,-6.5205,-6.5205,0,-6.4618,-6.4649,-6.4712,-6.478,-6.4834,-6.4815,-6.4866,-6.4912,-6.4981,-6.5023,-6.5077,-6.5157,-6.5221,-6.5248,-6.531,-6.5352,-6.5346,-6.5368,-6.5365,-6.5371,-6.5237,-6.5216,-6.5372,-6.5372,-6.5372,-6.5372,-6.5372,-6.5372,-6.471,-6.4805,-6.4817,-6.4929,-6.4958,-6.5036,-6.5067,-6.5108,-6.5142,-6.5234,-6.5288,-6.5306,-6.5342,-6.5407,-6.5464,-6.547,-6.5494,-6.5521,-6.5523,-6.5397,-6.538,-6.5364,-6.5344,-6.5525,-6.5526,-6.5652,-6.5654,-6.5655]}]]